Weather in Findikli

Turkey     41°16′35″N   41°08′51″E
temp.,
°C
wind,
m/s
gust,
m/s
humid.,
%
clouds,
%
prec.,
mm/h
press.,
hPa
HPBL,
m
25 february, thu
thu2500:00+2nw3397100 1.8 1033232
03:00+1w2296100 4.2 1033182
06:00+1w2394100 1.4 1035279
09:00+1nne019399 2.2 1035175
12:00+3wnw3289100 0.3 1034387
15:00+1wnw2299100 0.8 1033176
18:00+1wsw129193 0.3 1034269
21:00+1s118284 0.5 1035161
26 february, fri
fri2600:000se116937 0.0 1035105
03:000sse225819 0.0 103571
06:000sse22530 0.0 103570
09:00+3ne01470 0.0 1033325
12:00+3n32660 0.0 1031346
15:00+3n228013 0.0 1029301
18:00+1ene128235 0.0 1029215
21:00+1e127220 0.0 1030171
27 february, sat
sat2700:00+1ese11660 0.0 1028155
03:00+1ese11630 0.0 1027144
06:00+2se11610 0.0 1026113
09:00+4n11630 0.0 1025164
12:00+5nnw21700 0.0 1022200
15:00+6nne11741 0.0 1020169
18:00+4ene12734 0.0 102069
21:00+5se22602 0.0 102023
28 february, sun
sun2800:00+5sse23550 0.0 102023
03:00+5sse33540 0.0 102023
06:00+5s33550 0.0 101924
09:00+6wsw34620 0.0 1020322
12:00+5wsw458675 0.1 1019566
15:00+5sw358788 1.7 1019470
18:00+3w5695100 6.8 1020538
21:00+2sw3497100 12.2 1023291
1 march, mon
mon100:00+1w3395100 4.4 1024284
03:00+1sse1194100 6.6 1024151
06:00+1ssw1189100 0.8 1025226
09:00+2w2293100 1.7 1025253
12:00+2w2397100 1.3 1025269
15:00+1w2397100 3.8 1025246
18:00+1w2295100 2.7 1025211
21:00+1sw1187100 2.9 1027208